Flag for Comoros Weather past 2 weeks in Mutsamudu, Comoros

Now
88 °F

Passing clouds.


Feels Like: 98 °F
Forecast: 75 / 83 °F
Wind: 7 mph from South

Location: Dzaoudzi / Pamanzi Mayotte

Current Time: Apr 18, 2015 at 3:44:13 PM

Latest Report: Apr 18, 2015 at 3:00 PM


Visibility: N/A

Pressure: 29.86 "Hg

Humidity: 66%

Dew point: 75 °F

Location of MutsamuduLocation

Historic Weather in Mutsamudu — Graph

°F

Mutsamudu temperature yesterday

Maximum temperature yesterday: 90 °F (at 9:00 AM)
Minimum temperature yesterday: 81 °F (at 11:30 PM)
Average temperature yesterday: 85 °F

Past Weeks' High & Low Weather Summary

 TemperatureHumidityPressure
High90 °F (Apr 7, 2:00 PM)94% (Apr 11, 3:30 AM)30.01 "Hg (Apr 11, 3:30 AM)
Low77 °F (Apr 5, 12:30 AM)59% (Apr 4, 1:00 PM)29.74 "Hg (Apr 3, 2:00 PM)
Average84 °F75%29.87 "Hg
* Reported Apr 3 2:00 PM — Apr 18 2:00 PM, Mutsamudu, Weather by CustomWeather, © 2015

Note: Actual official high and low records may vary slightly from our data, if they occured in-between our weather recording intervals... More about our weather records

Advertising

Mutsamudu weather history for previous 24 hours

 ConditionsComfort  
Time TempWeatherWind HumidityBarometerVisibility
2:00 PM
Sat, Apr 18
88 °FPassing clouds.7 mph62%29.86 "HgN/A
1:30 PM88 °FPassing clouds.7 mph62%29.89 "HgN/A
1:00 PM88 °FPassing clouds.7 mph62%29.89 "HgN/A
12:30 PM88 °FPassing clouds.7 mph62%29.89 "HgN/A
12:00 PM88 °FPassing clouds.7 mph66%29.92 "HgN/A
11:30 AM88 °FScattered clouds.5 mph66%29.92 "HgN/A
11:00 AM88 °FScattered clouds.5 mph66%29.95 "HgN/A
10:30 AM88 °FPassing clouds.3 mph66%29.95 "HgN/A
10:00 AM88 °FScattered clouds.2 mph66%29.98 "HgN/A
9:30 AM86 °FScattered clouds.2 mph66%29.98 "HgN/A
9:00 AM86 °FScattered clouds.3 mph70%29.98 "HgN/A
8:30 AM86 °FPassing clouds.2 mph70%29.98 "HgN/A
8:00 AM84 °FPassing clouds.3 mph74%29.98 "HgN/A
7:30 AM82 °FPassing clouds.5 mph79%29.95 "HgN/A
7:00 AM81 °FPassing clouds.1 mph89%29.95 "HgN/A
6:30 AM77 °FPassing clouds.2 mph94%29.95 "HgN/A
6:00 AM77 °FPassing clouds.3 mph94%29.92 "HgN/A
5:30 AM77 °FPassing clouds.3 mph94%29.92 "HgN/A
5:00 AM77 °FPassing clouds.No wind89%29.92 "HgN/A
4:30 AM77 °FWarm.2 mph89%29.89 "HgN/A
4:00 AM77 °FWarm.3 mph89%29.89 "HgN/A
3:30 AM77 °FWarm.5 mph89%29.89 "HgN/A
3:00 AM77 °FWarm.2 mph89%29.89 "HgN/A
2:30 AM77 °FWarm.No wind89%29.92 "HgN/A
2:00 AM79 °FWarm.No wind84%29.92 "HgN/A
1:30 AM79 °FWarm.2 mph84%29.92 "HgN/A
1:00 AM81 °FWarm.6 mph84%29.95 "HgN/A
12:30 AM81 °FPartly cloudy.8 mph84%29.95 "HgN/A
12:00 AM81 °FWarm.5 mph89%29.95 "HgN/A
11:30 PM
Fri, Apr 17
81 °FLight rain. Passing clouds.5 mph89%29.98 "HgN/A
11:00 PM82 °FPartly cloudy.5 mph79%29.98 "HgN/A
10:30 PM82 °FPartly cloudy.5 mph79%29.98 "HgN/A
10:00 PM82 °FPassing clouds.No wind79%29.98 "HgN/A
9:30 PM82 °FPartly cloudy.2 mph79%29.98 "HgN/A
9:00 PM82 °FPassing clouds.2 mph79%29.98 "HgN/A
8:30 PM82 °FPassing clouds.5 mph79%29.98 "HgN/A
8:00 PM82 °FWarm.2 mph79%29.98 "HgN/A
7:30 PM82 °FWarm.No wind74%29.98 "HgN/A
7:00 PM82 °FWarm.No wind74%29.95 "HgN/A
6:30 PM82 °FPassing clouds.No wind79%29.95 "HgN/A
6:00 PM84 °FPassing clouds.No wind70%29.95 "HgN/A
5:30 PM84 °FScattered clouds.No wind70%29.95 "HgN/A
5:00 PM86 °FScattered clouds.No wind66%29.95 "HgN/A
4:30 PM86 °FScattered clouds.2 mph66%29.92 "HgN/A
4:00 PM88 °FPassing clouds.3 mph66%29.92 "HgN/A
3:30 PM90 °FPassing clouds.3 mph63%29.92 "HgN/A
3:00 PM90 °FPassing clouds.5 mph59%29.92 "HgN/A
Weather by CustomWeather, © 2015

See weather overviewHow to use our weather pages